Regional Weather Roundup
Issued by NWS Cleveland, OH

Home | Current Version | Previous Version | Graphics & Text | Print | Product List | Glossary On
Versions: 1 2 3 4 5 6 7 8 9 10 11 12 13 14 15 16 17 18 19 20 21 22 23 24 25 26 27 28 29 30 31 32 33 34 35 36 37 38 39 40 41 42 43 44 45 46 47 48 49 50
000
ASUS41 KCLE 021810
RWRCLE
NATIONAL WEATHER SERVICE CLEVELAND, OH
200 PM EDT WED SEP 02 2015

NOTE: "FAIR" INDICATES FEW OR NO CLOUDS BELOW 12,000 FEET WITH NO
SIGNIFICANT WEATHER AND/OR OBSTRUCTIONS TO VISIBILITY.

OHZ001>008-015>018-024>027-034-035-043-044-021900-
   NORTHWEST OHIO

CITY           SKY/WX    TMP DP  RH WIND       PRES   REMARKS
DEFIANCE       MOSUNNY   89  69  51 W8        30.04F HX  93
FINDLAY        MOSUNNY   86  72  62 S9        30.05F HX  92
TOLEDO EXPRESS SUNNY     84  71  65 SW5       30.03F
TOLEDO EXEC    MOSUNNY   82  71  69 S8        30.05F
LIMA           MOSUNNY   85  71  63 SW12      30.07F HX  90
$$

OHZ009>014-019>023-028>033-038-089-021900-
   NORTHEAST OHIO

CITY           SKY/WX    TMP DP  RH WIND       PRES   REMARKS
CLE-HOPKINS    PTSUNNY   85  69  58 SW8       30.06F
CLE-LAKEFRONT  SUNNY     81  71  71 W6        30.03F
CUY CO. ARPT   MOSUNNY   84  73  70 NW14      30.06F HX  91
LORAIN-ELYRIA  MOSUNNY   85  70  60 W10G16    30.05F
ASHTABULA      SUNNY     85  69  58 VRB6      30.05F
AKRON-CANTON   MOSUNNY   88  65  46 W9        30.07F HX  90
WOOSTER        MOSUNNY   87  66  49 W7        30.07F
MANSFIELD      MOSUNNY   86  68  54 VRB6      30.09F
YOUNGSTOWN     MOSUNNY   87  66  49 SW8       30.06F
$$

OHZ042-051>053-060>062-070>072-077>081-021900-
  SOUTHWEST OHIO

CITY           SKY/WX    TMP DP  RH WIND       PRES   REMARKS
CINC-COVINGTON MOSUNNY   88  67  49 CALM      30.10F HX  91
CINC-LUNKEN    SUNNY     87  68  52 S5        30.09F HX  90
HAMILTON       MOSUNNY   87  69  54 W5        30.09F HX  91
DAYTON         PTSUNNY   87  71  58 NW8       30.09F HX  93
WRIGHT-PAT AFB TSTM      85  73  66 SW6       30.08F VSB 1/2 HX  92
DAYTON GENERAL MOSUNNY   84  69  60 SW13      30.09F
WILMINGTON     MOSUNNY   75  69  81 SE9       30.11F
$$

OHZ036-037-039>041-045>050-054>059-063>069-073>076-082>088-021900-
  CENTRAL AND SOUTHEAST OHIO

CITY           SKY/WX    TMP DP  RH WIND       PRES   REMARKS
COLUMBUS       PTSUNNY   83  67  58 SW9       30.08F
OSU AIRPORT    MOSUNNY   84  69  60 SW8       30.09F
BOLTON FIELD   SUNNY     81  72  74 W7        30.10F
RICKENBACK AFB SUNNY     83  67  59 SW10      30.09F
NEWARK         SUNNY     86  69  56 W9        30.08F HX  90
MARION         LGT RAIN  74  63  68 W15G33    30.07F
LANCASTER      SUNNY     84  67  56 W12       30.10F
ZANESVILLE     MOSUNNY   88  65  46 W9        30.07F HX  90
NEW PHILLY     MOSUNNY   89  67  47 VRB7      30.07F HX  92
$$



USA.gov is the U.S. government's official web portal to all federal, state and local government web resources and services.